This demonstration page uses our WeatherBlox Daily Observations layout. Learn more.

Left ArrowRight Arrow

38.20091, -84.87328

Hourly Observations for May 29, 2022

Temp ( °F °C ) Dew Point ( °F °C ) Humidity (%) Winds ( mph kmh ) Pressure ( in mb ) Visibility ( mi km ) Precip ( " mm )
12:53 am 00:53 Clear 63 17.2 58 14.4 84 84 S 6 9 29.95 1014 10 16 0.00 0.00
1:53 am 01:53 Clear 61 16.1 57 13.9 87 87 Calm 29.95 1014 10 16 0.00 0.00
2:53 am 02:53 Clear 59 15 56 13.3 90 90 Calm 29.95 1014 10 16 0.00 0.00
3:51 am 03:51 Clear with Mist and Fog 57 14 55 13 94 94 Calm 29.97 1015 3 4 0.00 0.00
3:53 am 03:53 Clear with Mist and Fog 57 13.9 55 12.8 93 93 Calm 29.96 1014 3 5 0.00 0.00
4:53 am 04:53 Clear 57 13.9 55 12.8 93 93 Calm 29.96 1015 10 16 0.00 0.00
5:25 am 05:25 Mostly Clear 56 13.3 53 11.7 90 90 Calm 29.98 1015 10 16 0.00 0.00
5:40 am 05:40 Mostly Clear with Mist and Fog 56 13.3 53 11.7 90 90 Calm 29.99 1016 1 2 0.00 0.00
5:42 am 05:42 Mostly Cloudy with Mist and Fog 56 13.3 53 11.7 90 90 Calm 29.99 1016 1 1 0.00 0.00
5:50 am 05:50 Clear with Mist and Fog 55 13 54 12 94 94 Calm 29.99 1016 1 2 0.00 0.00
5:53 am 05:53 Clear with Mist and Fog 56 13.3 54 12.2 93 93 Calm 29.97 1015 3 5 0.00 0.00
6:53 am 06:53 Sunny 56 13.3 54 12.2 93 93 Calm 29.98 1015 10 16 0.00 0.00
7:53 am 07:53 Sunny 61 16.1 58 14.4 90 90 SE 5 7 29.99 1016 10 16 0.00 0.00
8:53 am 08:53 Sunny 66 18.9 60 15.6 81 81 SSE 6 9 30.01 1016 10 16 0.00 0.00
9:53 am 09:53 Sunny 71 21.7 62 16.7 73 73 SSE 5 7 30.01 1016 10 16 0.00 0.00
10:53 am 10:53 Sunny 74 23.3 61 16.1 64 64 SSW 7 11 30.00 1016 10 16 0.00 0.00
11:53 am 11:53 Sunny 77 25 61 16.1 58 58 S 8 13 29.99 1016 10 16 0.00 0.00
12:53 pm 12:53 Sunny 78 25.6 60 15.6 54 54 WSW 8 13 29.99 1016 10 16 0.00 0.00
1:53 pm 13:53 Mostly Sunny 80 26.7 60 15.6 51 51 SSW 10 17 29.98 1015 10 16 0.00 0.00
2:53 pm 14:53 Partly Cloudy 81 27.2 60 15.6 49 49 S 12 19 29.97 1015 10 16 0.00 0.00
3:53 pm 15:53 Mostly Sunny 83 28.3 60 15.6 46 46 S 12 19 29.96 1015 10 16 0.00 0.00
4:53 pm 16:53 Mostly Sunny 82 27.8 61 16.1 49 49 SE 9 15 29.96 1014 10 16 0.00 0.00
5:53 pm 17:53 Mostly Sunny 82 27.8 60 15.6 47 47 S 13 20 29.95 1014 10 16 0.00 0.00
6:53 pm 18:53 Sunny 81 27.2 58 14.4 45 45 S 10 17 29.95 1014 10 16 0.00 0.00
7:53 pm 19:53 Sunny 80 26.7 59 15 49 49 S 6 9 29.95 1014 10 16 0.00 0.00
8:53 pm 20:53 Sunny 76 24.4 60 15.6 58 58 SE 3 6 29.96 1015 10 16 0.00 0.00
9:53 pm 21:53 Clear 71 21.7 62 16.7 73 73 ESE 3 6 29.96 1015 10 16 0.00 0.00
10:53 pm 22:53 Clear 71 21.7 61 16.1 71 71 SE 3 6 29.97 1015 10 16 0.00 0.00
11:53 pm 23:53 Clear 69 20.6 60 15.6 73 73 Calm 29.98 1015 10 16 0.00 0.00

Powered by AerisWeather